Location: Carnetin
(48.9010°N, 2.7059°E)
Time: 04:57:51
(UTC+00:00)

USA 229 - Pass Details

Date: 04 June 2022
Orbit: 938 x 1274 km, 63.4° (Epoch: 24 May)

Event Time Altitude Azimuth Distance (km) Brightness Sun altitude
Rises 23:05:03 0° 315° (NW) 3,992 7.6 -18.0°
Reaches altitude 10° 23:07:53 10° 307° (NW) 3,077 6.8 -18.0°
Maximum altitude 23:14:31 37° 244° (WSW) 1,815 4.7 -18.2°
Enters shadow 23:18:17 24° 197° (SSW) 2,339 4.9 -18.3°
